Time,TemperatureF,DewpointF,PressureIn,WindDirection,WindDirectionDegrees,WindSpeedMPH,WindSpeedGustMPH,Humidity,HourlyPrecipIn,Conditions,Clouds,dailyrainin,SoftwareType,DateUTC
2013-05-11 00:02:00,47.7,43.1,29.94,North,0,0.0,0.0,84,0.00,RA,FEW,0.00,WeatherDisplay:10.37,2013-05-11 05:02:00,
2013-05-11 00:07:00,47.7,43.1,29.94,North,0,0.0,0.0,84,0.00,RA,FEW,0.00,WeatherDisplay:10.37,2013-05-11 05:07:00,
2013-05-11 00:13:00,47.3,42.7,29.94,North,0,0.0,0.0,84,0.00,OVC,FEW,0.00,WeatherDisplay:10.37,2013-05-11 05:13:00,
2013-05-11 00:18:00,47.3,42.7,29.94,North,0,0.0,0.0,84,0.00,OVC,FEW,0.00,WeatherDisplay:10.37,2013-05-11 05:18:00,
2013-05-11 00:24:00,47.5,42.9,29.94,NW,315,0.0,0.0,84,0.00,OVC,FEW,0.00,WeatherDisplay:10.37,2013-05-11 05:24:00,
2013-05-11 00:30:00,47.7,43.1,29.94,NE,45,0.0,0.0,84,0.00,OVC,FEW,0.00,WeatherDisplay:10.37,2013-05-11 05:30:00,
2013-05-11 00:35:00,47.7,43.1,29.94,NE,45,0.0,0.0,84,0.00,OVC,FEW,0.00,WeatherDisplay:10.37,2013-05-11 05:35:00,
2013-05-11 00:41:00,47.7,43.1,29.94,NE,45,0.0,0.0,84,0.00,OVC,FEW,0.00,WeatherDisplay:10.37,2013-05-11 05:41:00,
2013-05-11 00:46:00,47.7,43.1,29.93,NE,45,0.0,0.0,84,0.00,OVC,FEW,0.00,WeatherDisplay:10.37,2013-05-11 05:46:00,
2013-05-11 00:52:00,47.5,42.9,29.93,NE,45,0.0,0.0,84,0.00,OVC,FEW,0.00,WeatherDisplay:10.37,2013-05-11 05:52:00,
2013-05-11 00:58:00,47.1,42.5,29.93,NE,45,0.0,0.0,84,0.00,OVC,FEW,0.00,WeatherDisplay:10.37,2013-05-11 05:58:00,
2013-05-11 01:03:00,46.9,42.4,29.93,West,270,0.0,0.0,84,0.00,OVC,FEW,0.00,WeatherDisplay:10.37,2013-05-11 06:03:00,
2013-05-11 01:09:00,46.9,42.4,29.93,West,270,0.0,0.0,84,0.00,OVC,FEW,0.00,WeatherDisplay:10.37,2013-05-11 06:09:00,
2013-05-11 01:14:00,47.1,42.5,29.93,West,270,0.0,0.0,84,0.00,OVC,FEW,0.00,WeatherDisplay:10.37,2013-05-11 06:14:00,
2013-05-11 01:20:00,46.9,42.4,29.93,West,270,0.0,0.0,84,0.00,OVC,FEW,0.00,WeatherDisplay:10.37,2013-05-11 06:20:00,
2013-05-11 01:26:00,46.9,42.4,29.92,West,270,0.0,0.0,84,0.00,OVC,FEW,0.00,WeatherDisplay:10.37,2013-05-11 06:26:00,
2013-05-11 01:31:00,46.8,42.2,29.93,West,270,0.0,0.0,84,0.00,OVC,FEW,0.00,WeatherDisplay:10.37,2013-05-11 06:31:00,
2013-05-11 01:37:00,46.8,42.2,29.93,West,270,0.0,0.0,84,0.00,OVC,FEW,0.00,WeatherDisplay:10.37,2013-05-11 06:37:00,
2013-05-11 01:42:00,46.6,42.0,29.92,NW,315,0.0,0.0,84,0.00,OVC,FEW,0.00,WeatherDisplay:10.37,2013-05-11 06:42:00,
2013-05-11 01:48:00,46.4,41.8,29.92,NW,315,0.0,0.0,84,0.00,OVC,FEW,0.00,WeatherDisplay:10.37,2013-05-11 06:48:00,
2013-05-11 01:54:00,46.2,41.7,29.92,NW,315,0.0,0.0,84,0.00,OVC,FEW,0.00,WeatherDisplay:10.37,2013-05-11 06:54:00,
2013-05-11 01:59:00,46.4,41.8,29.92,NW,315,0.0,0.0,84,0.00,OVC,FEW,0.00,WeatherDisplay:10.37,2013-05-11 06:59:00,
2013-05-11 02:05:00,46.2,41.7,29.91,NW,315,0.0,0.0,84,0.00,OVC,FEW,0.00,WeatherDisplay:10.37,2013-05-11 07:05:00,
2013-05-11 02:10:00,46.0,41.5,29.91,NW,315,0.0,0.0,84,0.00,OVC,FEW,0.00,WeatherDisplay:10.37,2013-05-11 07:10:00,
2013-05-11 02:16:00,46.0,41.5,29.91,NW,315,0.0,0.0,84,0.00,OVC,FEW,0.00,WeatherDisplay:10.37,2013-05-11 07:16:00,
2013-05-11 02:22:00,46.0,41.5,29.91,NW,315,0.0,0.0,84,0.00,OVC,FEW,0.00,WeatherDisplay:10.37,2013-05-11 07:22:00,
2013-05-11 02:27:00,46.0,41.5,29.91,NW,315,0.0,0.0,84,0.00,OVC,FEW,0.00,WeatherDisplay:10.37,2013-05-11 07:27:00,
2013-05-11 02:33:00,46.2,41.7,29.91,West,270,0.0,0.0,84,0.00,OVC,FEW,0.00,WeatherDisplay:10.37,2013-05-11 07:33:00,
2013-05-11 02:38:00,46.2,41.7,29.91,West,270,0.0,0.0,84,0.00,OVC,FEW,0.00,WeatherDisplay:10.37,2013-05-11 07:38:00,
2013-05-11 02:44:00,46.0,41.5,29.91,North,0,0.0,0.0,84,0.00,OVC,FEW,0.00,WeatherDisplay:10.37,2013-05-11 07:44:00,
2013-05-11 02:50:00,46.0,41.5,29.91,North,0,0.0,0.0,84,0.00,OVC,FEW,0.00,WeatherDisplay:10.37,2013-05-11 07:50:00,
2013-05-11 02:55:00,46.0,41.5,29.90,East,90,0.0,0.0,84,0.00,OVC,FEW,0.00,WeatherDisplay:10.37,2013-05-11 07:55:00,
2013-05-11 03:01:00,46.0,41.5,29.90,East,90,0.0,1.2,84,0.00,OVC,FEW,0.00,WeatherDisplay:10.37,2013-05-11 08:01:00,
2013-05-11 03:06:00,46.0,41.5,29.91,East,90,0.0,0.0,84,0.00,OVC,FEW,0.00,WeatherDisplay:10.37,2013-05-11 08:06:00,
2013-05-11 03:12:00,46.0,41.5,29.90,North,0,0.0,0.0,84,0.00,OVC,FEW,0.00,WeatherDisplay:10.37,2013-05-11 08:12:00,
2013-05-11 03:18:00,45.9,41.3,29.90,North,0,0.0,0.0,84,0.00,OVC,FEW,0.00,WeatherDisplay:10.37,2013-05-11 08:18:00,
2013-05-11 03:23:00,45.9,41.3,29.90,North,0,0.0,0.0,84,0.00,OVC,FEW,0.00,WeatherDisplay:10.37,2013-05-11 08:23:00,
2013-05-11 03:29:00,46.0,41.5,29.90,South,180,0.0,0.0,84,0.00,OVC,FEW,0.00,WeatherDisplay:10.37,2013-05-11 08:29:00,
2013-05-11 03:34:00,46.6,42.0,29.91,South,180,0.0,0.0,84,0.00,OVC,FEW,0.00,WeatherDisplay:10.37,2013-05-11 08:34:00,
2013-05-11 03:40:00,47.1,42.5,29.90,SW,225,0.0,1.2,84,0.00,OVC,FEW,0.00,WeatherDisplay:10.37,2013-05-11 08:40:00,
2013-05-11 03:46:00,47.1,42.5,29.90,SW,225,0.0,0.0,84,0.00,OVC,FEW,0.00,WeatherDisplay:10.37,2013-05-11 08:46:00,
2013-05-11 03:51:00,47.1,42.5,29.90,SSW,202,0.0,1.2,84,0.00,OVC,FEW,0.00,WeatherDisplay:10.37,2013-05-11 08:51:00,
2013-05-11 03:57:00,47.3,42.7,29.90,SW,225,0.0,0.0,84,0.00,OVC,FEW,0.00,WeatherDisplay:10.37,2013-05-11 08:57:00,
2013-05-11 04:02:00,47.3,42.7,29.90,SW,225,0.0,0.0,84,0.00,OVC,FEW,0.00,WeatherDisplay:10.37,2013-05-11 09:02:00,
2013-05-11 04:08:00,47.7,43.1,29.90,South,180,0.0,0.0,84,0.00,OVC,FEW,0.00,WeatherDisplay:10.37,2013-05-11 09:08:00,
2013-05-11 04:14:00,47.7,43.1,29.89,SW,225,0.0,0.0,84,0.00,OVC,FEW,0.00,WeatherDisplay:10.37,2013-05-11 09:14:00,
2013-05-11 04:19:00,47.7,43.1,29.89,South,180,0.0,0.0,84,0.00,OVC,FEW,0.00,WeatherDisplay:10.37,2013-05-11 09:19:00,
2013-05-11 04:25:00,47.7,43.1,29.89,West,270,0.0,0.7,84,0.00,OVC,FEW,0.00,WeatherDisplay:10.37,2013-05-11 09:25:00,
2013-05-11 04:30:00,47.7,43.1,29.89,SW,225,0.0,1.2,84,0.00,OVC,FEW,0.00,WeatherDisplay:10.37,2013-05-11 09:30:00,
2013-05-11 04:36:00,47.7,43.1,29.89,SE,135,0.0,1.6,84,0.00,OVC,FEW,0.00,WeatherDisplay:10.37,2013-05-11 09:36:00,
2013-05-11 04:42:00,47.7,43.1,29.89,SW,225,0.0,1.6,84,0.00,OVC,FEW,0.00,WeatherDisplay:10.37,2013-05-11 09:42:00,
2013-05-11 04:47:00,47.7,43.1,29.89,NW,315,0.0,1.6,84,0.00,OVC,FEW,0.00,WeatherDisplay:10.37,2013-05-11 09:47:00,
2013-05-11 04:53:00,47.7,43.1,29.88,South,180,0.0,1.2,84,0.00,OVC,FEW,0.00,WeatherDisplay:10.37,2013-05-11 09:53:00,
2013-05-11 04:58:00,47.7,43.1,29.88,SE,135,0.0,1.6,84,0.00,OVC,FEW,0.00,WeatherDisplay:10.37,2013-05-11 09:58:00,
2013-05-11 05:04:00,47.7,43.1,29.88,West,270,0.0,2.3,84,0.00,OVC,FEW,0.00,WeatherDisplay:10.37,2013-05-11 10:04:00,
2013-05-11 05:10:00,47.7,43.1,29.88,South,180,0.7,2.2,84,0.00,OVC,FEW,0.00,WeatherDisplay:10.37,2013-05-11 10:10:00,
2013-05-11 05:15:00,47.7,43.1,29.88,SW,225,0.7,2.3,84,0.00,OVC,FEW,0.00,WeatherDisplay:10.37,2013-05-11 10:15:00,
2013-05-11 05:21:00,47.8,43.2,29.88,SW,225,0.7,2.3,84,0.00,OVC,FEW,0.00,WeatherDisplay:10.37,2013-05-11 10:21:00,
2013-05-11 05:26:00,47.8,43.2,29.88,SW,225,2.2,4.5,84,0.00,OVC,FEW,0.00,WeatherDisplay:10.37,2013-05-11 10:26:00,
2013-05-11 05:32:00,48.0,43.4,29.88,SW,225,0.7,2.3,84,0.00,OVC,FEW,0.00,WeatherDisplay:10.37,2013-05-11 10:32:00,
2013-05-11 05:38:00,47.8,43.2,29.87,SE,135,0.7,3.1,84,0.00,OVC,FEW,0.00,WeatherDisplay:10.37,2013-05-11 10:38:00,
2013-05-11 05:43:00,48.0,43.4,29.87,South,180,0.7,3.5,84,0.00,OVC,FEW,0.00,WeatherDisplay:10.37,2013-05-11 10:43:00,
2013-05-11 05:49:00,48.4,43.8,29.86,SE,135,0.7,3.5,84,0.00,OVC,FEW,0.00,WeatherDisplay:10.37,2013-05-11 10:49:00,
2013-05-11 05:54:00,48.6,43.9,29.87,SW,225,0.7,3.5,84,0.00,OVC,FEW,0.00,WeatherDisplay:10.37,2013-05-11 10:54:00,
2013-05-11 06:00:00,48.6,43.9,29.87,South,180,1.6,3.5,84,0.00,OVC,FEW,0.00,WeatherDisplay:10.37,2013-05-11 11:00:00,
2013-05-11 06:06:00,48.7,44.1,29.86,SW,225,0.7,3.5,84,0.00,OVC,FEW,0.00,WeatherDisplay:10.37,2013-05-11 11:06:00,
2013-05-11 06:11:00,49.3,44.6,29.86,SW,225,0.7,4.6,84,0.00,OVC,FEW,0.00,WeatherDisplay:10.37,2013-05-11 11:11:00,
2013-05-11 06:17:00,49.5,44.8,29.86,West,270,0.7,3.8,84,0.00,OVC,FEW,0.00,WeatherDisplay:10.37,2013-05-11 11:17:00,
2013-05-11 06:22:00,49.5,44.8,29.87,SW,225,3.1,5.4,84,0.00,OVC,FEW,0.00,WeatherDisplay:10.37,2013-05-11 11:22:00,
2013-05-11 06:28:00,49.8,45.2,29.87,South,180,1.6,4.6,84,0.00,OVC,FEW,0.00,WeatherDisplay:10.37,2013-05-11 11:28:00,
2013-05-11 06:34:00,50.0,45.4,29.86,South,180,1.6,4.6,84,0.00,OVC,FEW,0.00,WeatherDisplay:10.37,2013-05-11 11:34:00,
2013-05-11 06:39:00,50.2,45.5,29.87,SW,225,0.7,6.9,84,0.00,OVC,FEW,0.00,WeatherDisplay:10.37,2013-05-11 11:39:00,
2013-05-11 06:45:00,50.4,45.7,29.87,North,0,0.0,2.3,84,0.00,OVC,FEW,0.00,WeatherDisplay:10.37,2013-05-11 11:45:00,
2013-05-11 06:50:00,50.5,45.9,29.87,South,180,0.7,4.6,84,0.00,OVC,FEW,0.00,WeatherDisplay:10.37,2013-05-11 11:50:00,
2013-05-11 06:56:00,50.9,46.2,29.87,SW,225,1.6,3.8,84,0.00,OVC,FEW,0.00,WeatherDisplay:10.37,2013-05-11 11:56:00,
2013-05-11 07:02:00,50.9,46.2,29.87,West,270,0.0,3.5,84,0.01,RA,FEW,0.01,WeatherDisplay:10.37,2013-05-11 12:02:00,
2013-05-11 07:07:00,50.9,46.2,29.86,SE,135,1.6,2.3,84,0.01,RA,FEW,0.01,WeatherDisplay:10.37,2013-05-11 12:07:00,
2013-05-11 07:13:00,50.9,46.2,29.86,SW,225,1.6,4.6,84,0.01,OVC,FEW,0.01,WeatherDisplay:10.37,2013-05-11 12:13:00,
2013-05-11 07:18:00,51.3,46.6,29.86,West,270,0.0,3.5,84,0.01,OVC,FEW,0.01,WeatherDisplay:10.37,2013-05-11 12:18:00,
2013-05-11 07:24:00,51.4,46.8,29.86,SW,225,0.7,3.5,84,0.01,OVC,FEW,0.01,WeatherDisplay:10.37,2013-05-11 12:24:00,
2013-05-11 07:30:00,52.2,47.5,29.86,NW,315,1.6,3.1,84,0.01,OVC,FEW,0.01,WeatherDisplay:10.37,2013-05-11 12:30:00,
2013-05-11 07:35:00,52.5,47.8,29.86,North,0,1.6,3.5,84,0.01,OVC,FEW,0.01,WeatherDisplay:10.37,2013-05-11 12:35:00,
2013-05-11 07:41:00,52.7,48.0,29.87,SE,135,0.7,3.5,84,0.01,OVC,FEW,0.01,WeatherDisplay:10.37,2013-05-11 12:41:00,
2013-05-11 07:46:00,52.7,48.0,29.87,SW,225,0.7,3.5,84,0.01,OVC,FEW,0.01,WeatherDisplay:10.37,2013-05-11 12:46:00,
2013-05-11 07:52:00,52.7,48.0,29.87,SW,225,0.7,3.5,84,0.01,OVC,FEW,0.01,WeatherDisplay:10.37,2013-05-11 12:52:00,
2013-05-11 07:58:00,52.9,48.2,29.87,SW,225,0.0,3.1,84,0.01,OVC,FEW,0.01,WeatherDisplay:10.37,2013-05-11 12:58:00,
2013-05-11 08:03:00,53.2,48.5,29.87,West,270,0.0,2.3,84,0.00,OVC,FEW,0.01,WeatherDisplay:10.37,2013-05-11 13:03:00,
2013-05-11 08:09:00,53.8,49.1,29.86,NW,315,2.2,5.4,84,0.00,OVC,FEW,0.01,WeatherDisplay:10.37,2013-05-11 13:09:00,
2013-05-11 08:14:00,53.8,49.1,29.87,West,270,3.1,5.8,84,0.00,OVC,FEW,0.01,WeatherDisplay:10.37,2013-05-11 13:14:00,
2013-05-11 08:20:00,54.1,49.4,29.87,West,270,5.4,12.7,84,0.00,OVC,FEW,0.01,WeatherDisplay:10.37,2013-05-11 13:20:00,
2013-05-11 08:26:00,54.7,49.6,29.88,NW,315,3.8,5.8,83,0.00,OVC,FEW,0.01,WeatherDisplay:10.37,2013-05-11 13:26:00,
2013-05-11 08:31:00,54.5,47.1,29.88,NW,315,7.6,15.0,76,0.00,OVC,FEW,0.01,WeatherDisplay:10.37,2013-05-11 13:31:00,
2013-05-11 08:37:00,54.9,47.8,29.87,North,0,6.0,9.2,77,0.00,OVC,FEW,0.01,WeatherDisplay:10.37,2013-05-11 13:37:00,
2013-05-11 08:42:00,54.9,47.8,29.88,North,0,3.8,8.1,77,0.00,OVC,FEW,0.01,WeatherDisplay:10.37,2013-05-11 13:42:00,
2013-05-11 08:48:00,54.5,46.4,29.88,NW,315,5.4,9.8,74,0.00,OVC,FEW,0.01,WeatherDisplay:10.37,2013-05-11 13:48:00,
2013-05-11 08:54:00,55.0,44.7,29.88,NW,315,3.8,17.3,68,0.00,OVC,FEW,0.01,WeatherDisplay:10.37,2013-05-11 13:54:00,
2013-05-11 08:59:00,55.4,44.6,29.88,NE,45,4.5,18.4,67,0.00,OVC,FEW,0.01,WeatherDisplay:10.37,2013-05-11 13:59:00,
2013-05-11 09:05:00,56.3,44.7,29.89,WNW,292,5.4,12.7,65,0.00,OVC,FEW,0.01,WeatherDisplay:10.37,2013-05-11 14:05:00,
2013-05-11 09:10:00,56.1,44.1,29.89,North,0,6.0,11.5,64,0.00,OVC,FEW,0.01,WeatherDisplay:10.37,2013-05-11 14:10:00,
2013-05-11 09:16:00,56.7,44.2,29.89,North,0,5.4,8.3,63,0.00,OVC,FEW,0.01,WeatherDisplay:10.37,2013-05-11 14:16:00,
2013-05-11 09:22:00,56.8,44.0,29.90,North,0,6.0,10.7,62,0.00,OVC,FEW,0.01,WeatherDisplay:10.37,2013-05-11 14:22:00,
2013-05-11 09:27:00,56.1,40.2,29.90,North,0,11.4,17.3,55,0.00,OVC,FEW,0.01,WeatherDisplay:10.37,2013-05-11 14:27:00,
2013-05-11 09:33:00,55.6,34.6,29.89,WNW,292,13.0,20.6,45,0.00,OVC,FEW,0.01,WeatherDisplay:10.37,2013-05-11 14:33:00,
2013-05-11 09:38:00,55.8,33.6,29.89,NW,315,6.9,20.7,43,0.00,OVC,FEW,0.01,WeatherDisplay:10.37,2013-05-11 14:38:00,
2013-05-11 09:44:00,55.8,33.6,29.89,North,0,7.6,18.4,43,0.00,OVC,FEW,0.01,WeatherDisplay:10.37,2013-05-11 14:44:00,
2013-05-11 09:50:00,56.5,34.8,29.91,NW,315,6.9,12.1,44,0.00,OVC,FEW,0.01,WeatherDisplay:10.37,2013-05-11 14:50:00,
2013-05-11 09:55:00,56.3,32.9,29.90,NW,315,4.5,15.0,41,0.00,OVC,FEW,0.01,WeatherDisplay:10.37,2013-05-11 14:55:00,
2013-05-11 10:01:00,56.1,30.2,29.90,WNW,292,8.3,20.7,37,0.01,RA,FEW,0.02,WeatherDisplay:10.37,2013-05-11 15:01:00,
2013-05-11 10:06:00,56.1,28.8,29.90,NW,315,5.4,12.7,35,0.01,RA,FEW,0.02,WeatherDisplay:10.37,2013-05-11 15:06:00,
2013-05-11 10:12:00,55.8,29.9,29.90,North,0,6.9,24.2,37,0.01,OVC,FEW,0.02,WeatherDisplay:10.37,2013-05-11 15:12:00,
2013-05-11 10:18:00,56.5,28.4,29.91,NW,315,8.3,16.1,34,0.01,OVC,FEW,0.02,WeatherDisplay:10.37,2013-05-11 15:18:00,
2013-05-11 10:23:00,56.1,26.6,29.91,NW,315,11.4,19.6,32,0.01,OVC,FEW,0.02,WeatherDisplay:10.37,2013-05-11 15:23:00,
2013-05-11 10:29:00,56.5,25.4,29.91,North,0,11.4,24.4,30,0.01,OVC,FEW,0.02,WeatherDisplay:10.37,2013-05-11 15:29:00,
2013-05-11 10:34:00,57.2,26.8,29.91,NW,315,6.0,13.7,31,0.01,OVC,FEW,0.02,WeatherDisplay:10.37,2013-05-11 15:34:00,
2013-05-11 10:40:00,56.8,27.3,29.91,North,0,8.3,19.6,32,0.01,OVC,FEW,0.02,WeatherDisplay:10.37,2013-05-11 15:40:00,
2013-05-11 10:46:00,57.4,22.7,29.91,North,0,11.4,26.0,26,0.01,OVC,FEW,0.02,WeatherDisplay:10.37,2013-05-11 15:46:00,
2013-05-11 10:51:00,56.7,24.7,29.91,West,270,6.0,13.8,29,0.01,OVC,FEW,0.02,WeatherDisplay:10.37,2013-05-11 15:51:00,
2013-05-11 10:57:00,57.7,25.7,29.92,NW,315,3.8,15.0,29,0.01,OVC,FEW,0.02,WeatherDisplay:10.37,2013-05-11 15:57:00,
2013-05-11 11:02:00,58.1,24.3,29.91,South,180,6.0,10.4,27,0.00,OVC,FEW,0.02,WeatherDisplay:10.37,2013-05-11 16:02:00,
2013-05-11 11:08:00,57.6,22.0,29.92,North,0,8.3,16.1,25,0.00,OVC,FEW,0.02,WeatherDisplay:10.37,2013-05-11 16:08:00,
2013-05-11 11:14:00,58.5,24.6,29.92,West,270,4.5,9.2,27,0.00,OVC,FEW,0.02,WeatherDisplay:10.37,2013-05-11 16:14:00,
2013-05-11 11:19:00,58.6,28.8,29.93,West,270,2.2,15.0,32,0.00,OVC,FEW,0.02,WeatherDisplay:10.37,2013-05-11 16:19:00,
2013-05-11 11:25:00,59.0,25.0,29.93,West,270,3.8,19.6,27,0.00,OVC,FEW,0.02,WeatherDisplay:10.37,2013-05-11 16:25:00,
2013-05-11 11:30:00,58.3,25.3,29.93,NW,315,8.3,17.3,28,0.00,OVC,FEW,0.02,WeatherDisplay:10.37,2013-05-11 16:30:00,
2013-05-11 11:36:00,58.5,26.3,29.93,West,270,3.8,16.1,29,0.00,OVC,FEW,0.02,WeatherDisplay:10.37,2013-05-11 16:36:00,
2013-05-11 11:42:00,58.1,25.1,29.93,NW,315,9.2,20.7,28,0.00,OVC,FEW,0.02,WeatherDisplay:10.37,2013-05-11 16:42:00,
2013-05-11 11:47:00,58.6,21.9,29.93,North,0,9.8,19.6,24,0.00,OVC,FEW,0.02,WeatherDisplay:10.37,2013-05-11 16:47:00,
2013-05-11 11:53:00,58.1,21.4,29.94,NW,315,9.2,18.4,24,0.00,OVC,FEW,0.02,WeatherDisplay:10.37,2013-05-11 16:53:00,
2013-05-11 11:58:00,58.3,24.4,29.94,NW,315,6.0,17.3,27,0.00,OVC,FEW,0.02,WeatherDisplay:10.37,2013-05-11 16:58:00,
2013-05-11 12:04:00,58.3,23.5,29.94,NW,315,9.8,17.3,26,0.00,OVC,FEW,0.02,WeatherDisplay:10.37,2013-05-11 17:04:00,
2013-05-11 12:10:00,58.5,25.4,29.94,West,270,5.4,18.4,28,0.00,OVC,FEW,0.02,WeatherDisplay:10.37,2013-05-11 17:10:00,
2013-05-11 12:15:00,59.0,27.6,29.94,NW,315,6.0,16.1,30,0.00,OVC,FEW,0.02,WeatherDisplay:10.37,2013-05-11 17:15:00,
2013-05-11 12:21:00,58.1,23.3,29.95,NW,315,9.2,17.3,26,0.00,OVC,FEW,0.02,WeatherDisplay:10.37,2013-05-11 17:21:00,
2013-05-11 12:26:00,57.6,17.9,29.94,North,0,9.2,23.0,21,0.00,OVC,FEW,0.02,WeatherDisplay:10.37,2013-05-11 17:26:00,
2013-05-11 12:32:00,57.4,22.7,29.94,NW,315,6.9,18.4,26,0.00,OVC,FEW,0.02,WeatherDisplay:10.37,2013-05-11 17:32:00,
2013-05-11 12:38:00,58.3,21.6,29.95,NW,315,9.2,23.0,24,0.00,OVC,FEW,0.02,WeatherDisplay:10.37,2013-05-11 17:38:00,
2013-05-11 12:43:00,59.2,24.3,29.95,West,270,5.4,17.3,26,0.00,OVC,FEW,0.02,WeatherDisplay:10.37,2013-05-11 17:43:00,
2013-05-11 12:49:00,58.3,26.1,29.95,NW,315,6.9,20.7,29,0.00,OVC,FEW,0.02,WeatherDisplay:10.37,2013-05-11 17:49:00,
2013-05-11 12:54:00,59.2,26.9,29.95,North,0,6.0,13.8,29,0.00,OVC,FEW,0.02,WeatherDisplay:10.37,2013-05-11 17:54:00,
2013-05-11 13:00:00,59.4,25.3,29.95,West,270,6.0,12.7,27,0.00,OVC,FEW,0.02,WeatherDisplay:10.37,2013-05-11 18:00:00,
2013-05-11 13:06:00,58.1,25.1,29.95,NW,315,9.2,20.7,28,0.00,OVC,FEW,0.02,WeatherDisplay:10.37,2013-05-11 18:06:00,
2013-05-11 13:11:00,58.8,24.9,29.95,NW,315,4.5,19.6,27,0.00,OVC,FEW,0.02,WeatherDisplay:10.37,2013-05-11 18:11:00,
2013-05-11 13:17:00,57.7,23.9,29.95,North,0,10.7,26.0,27,0.00,OVC,FEW,0.02,WeatherDisplay:10.37,2013-05-11 18:17:00,
2013-05-11 13:22:00,56.8,23.2,29.96,West,270,9.8,19.7,27,0.00,OVC,FEW,0.02,WeatherDisplay:10.37,2013-05-11 18:22:00,
2013-05-11 13:28:00,57.0,25.0,29.96,North,0,7.6,23.0,29,0.00,OVC,FEW,0.02,WeatherDisplay:10.37,2013-05-11 18:28:00,
2013-05-11 13:34:00,57.7,24.8,29.95,NW,315,6.9,16.1,28,0.00,OVC,FEW,0.02,WeatherDisplay:10.37,2013-05-11 18:34:00,
2013-05-11 13:39:00,58.3,25.3,29.96,NW,315,9.2,17.5,28,0.00,OVC,FEW,0.02,WeatherDisplay:10.37,2013-05-11 18:39:00,
2013-05-11 13:45:00,57.4,26.2,29.96,NW,315,6.0,21.9,30,0.00,OVC,FEW,0.02,WeatherDisplay:10.37,2013-05-11 18:45:00,
2013-05-11 13:50:00,57.2,25.2,29.96,NW,315,6.9,19.6,29,0.00,OVC,FEW,0.02,WeatherDisplay:10.37,2013-05-11 18:50:00,
2013-05-11 13:56:00,56.3,24.4,29.97,West,270,9.2,24.4,29,0.00,OVC,FEW,0.02,WeatherDisplay:10.37,2013-05-11 18:56:00,
2013-05-11 14:02:00,56.5,22.0,29.96,WNW,292,10.7,21.9,26,0.00,OVC,FEW,0.02,WeatherDisplay:10.37,2013-05-11 19:02:00,
2013-05-11 14:07:00,57.0,24.2,29.97,WNW,292,7.6,18.4,28,0.00,OVC,FEW,0.02,WeatherDisplay:10.37,2013-05-11 19:07:00,
2013-05-11 14:13:00,56.3,25.2,29.97,NW,315,7.6,17.3,30,0.00,OVC,FEW,0.02,WeatherDisplay:10.37,2013-05-11 19:13:00,
2013-05-11 14:18:00,55.9,24.9,29.97,NW,315,9.8,18.4,30,0.00,OVC,FEW,0.02,WeatherDisplay:10.37,2013-05-11 19:18:00,
2013-05-11 14:24:00,56.1,22.6,29.97,NW,315,11.4,26.5,27,0.00,OVC,FEW,0.02,WeatherDisplay:10.37,2013-05-11 19:24:00,
2013-05-11 14:30:00,56.7,23.0,29.98,NW,315,6.9,15.0,27,0.00,OVC,FEW,0.02,WeatherDisplay:10.37,2013-05-11 19:30:00,
2013-05-11 14:35:00,56.8,24.0,29.97,North,0,8.3,20.7,28,0.00,OVC,FEW,0.02,WeatherDisplay:10.37,2013-05-11 19:35:00,
2013-05-11 14:41:00,57.9,26.6,29.98,North,0,5.4,23.0,30,0.00,OVC,FEW,0.02,WeatherDisplay:10.37,2013-05-11 19:41:00,
2013-05-11 14:46:00,57.9,22.3,29.98,NW,315,11.4,19.6,25,0.00,OVC,FEW,0.02,WeatherDisplay:10.37,2013-05-11 19:46:00,
2013-05-11 14:52:00,57.7,23.0,29.98,North,0,9.8,19.6,26,0.00,OVC,FEW,0.02,WeatherDisplay:10.37,2013-05-11 19:52:00,
2013-05-11 14:58:00,56.1,23.4,29.98,South,180,8.3,23.0,28,0.00,OVC,FEW,0.02,WeatherDisplay:10.37,2013-05-11 19:58:00,
2013-05-11 15:03:00,55.4,22.8,29.98,NW,315,13.7,24.4,28,0.00,OVC,FEW,0.02,WeatherDisplay:10.37,2013-05-11 20:03:00,
2013-05-11 15:09:00,57.2,22.6,29.99,NW,315,10.7,24.2,26,0.00,OVC,FEW,0.02,WeatherDisplay:10.37,2013-05-11 20:09:00,
2013-05-11 15:14:00,57.0,23.3,29.99,NW,315,13.0,23.5,27,0.00,OVC,FEW,0.02,WeatherDisplay:10.37,2013-05-11 20:14:00,
2013-05-11 15:20:00,57.9,25.0,29.99,NW,315,5.4,23.0,28,0.00,OVC,FEW,0.02,WeatherDisplay:10.37,2013-05-11 20:20:00,
2013-05-11 15:26:00,56.5,22.9,29.99,NW,315,11.4,21.3,27,0.00,OVC,FEW,0.02,WeatherDisplay:10.37,2013-05-11 20:26:00,
2013-05-11 15:31:00,56.8,20.4,29.99,North,0,9.8,20.7,24,0.00,OVC,FEW,0.02,WeatherDisplay:10.37,2013-05-11 20:31:00,
2013-05-11 15:37:00,55.9,21.5,29.99,NW,315,10.7,19.7,26,0.00,OVC,FEW,0.02,WeatherDisplay:10.37,2013-05-11 20:37:00,
2013-05-11 15:42:00,55.4,18.2,29.99,WNW,292,9.8,15.0,23,0.00,OVC,FEW,0.02,WeatherDisplay:10.37,2013-05-11 20:42:00,
2013-05-11 15:48:00,55.6,21.2,30.00,NE,45,6.9,12.1,26,0.00,OVC,FEW,0.02,WeatherDisplay:10.37,2013-05-11 20:48:00,
2013-05-11 15:54:00,56.5,21.0,29.99,West,270,7.6,17.3,25,0.00,OVC,FEW,0.02,WeatherDisplay:10.37,2013-05-11 20:54:00,
2013-05-11 15:59:00,57.6,21.0,29.99,West,270,8.3,20.6,24,0.00,OVC,FEW,0.02,WeatherDisplay:10.37,2013-05-11 20:59:00,
2013-05-11 16:05:00,57.4,20.8,30.00,NW,315,6.9,10.7,24,0.00,OVC,FEW,0.02,WeatherDisplay:10.37,2013-05-11 21:05:00,
2013-05-11 16:10:00,55.4,21.0,30.00,North,0,6.0,13.8,26,0.00,OVC,FEW,0.02,WeatherDisplay:10.37,2013-05-11 21:10:00,
2013-05-11 16:16:00,55.2,20.0,29.99,WNW,292,6.9,12.7,25,0.00,OVC,FEW,0.02,WeatherDisplay:10.37,2013-05-11 21:16:00,
2013-05-11 16:22:00,56.1,19.8,29.99,SW,225,6.9,10.7,24,0.00,OVC,FEW,0.02,WeatherDisplay:10.37,2013-05-11 21:22:00,
2013-05-11 16:27:00,56.5,20.1,29.99,North,0,6.9,24.2,24,0.00,OVC,FEW,0.02,WeatherDisplay:10.37,2013-05-11 21:27:00,
2013-05-11 16:33:00,55.9,17.6,30.00,NW,315,9.8,17.3,22,0.00,OVC,FEW,0.02,WeatherDisplay:10.37,2013-05-11 21:33:00,
2013-05-11 16:38:00,55.8,20.4,30.00,NE,45,4.5,8.1,25,0.00,OVC,FEW,0.02,WeatherDisplay:10.37,2013-05-11 21:38:00,
2013-05-11 16:44:00,55.9,19.6,30.00,NW,315,7.6,12.7,24,0.00,OVC,FEW,0.02,WeatherDisplay:10.37,2013-05-11 21:44:00,
2013-05-11 16:50:00,55.4,21.9,30.00,North,0,3.8,13.8,27,0.00,OVC,FEW,0.02,WeatherDisplay:10.37,2013-05-11 21:50:00,
2013-05-11 16:55:00,55.2,20.9,30.00,North,0,6.0,17.3,26,0.00,OVC,FEW,0.02,WeatherDisplay:10.37,2013-05-11 21:55:00,
2013-05-11 17:01:00,55.0,19.8,30.00,West,270,6.0,15.0,25,0.00,OVC,FEW,0.02,WeatherDisplay:10.37,2013-05-11 22:01:00,
2013-05-11 17:06:00,54.5,21.2,30.00,West,270,5.4,19.6,27,0.00,OVC,FEW,0.02,WeatherDisplay:10.37,2013-05-11 22:06:00,
2013-05-11 17:12:00,54.7,21.3,30.00,NW,315,6.9,13.8,27,0.00,OVC,FEW,0.02,WeatherDisplay:10.37,2013-05-11 22:12:00,
2013-05-11 17:18:00,54.9,22.3,30.00,NW,315,3.1,6.9,28,0.00,OVC,FEW,0.02,WeatherDisplay:10.37,2013-05-11 22:18:00,
2013-05-11 17:23:00,55.0,20.7,30.00,NW,315,6.0,17.3,26,0.00,OVC,FEW,0.02,WeatherDisplay:10.37,2013-05-11 22:23:00,
2013-05-11 17:29:00,55.8,22.2,30.00,NW,315,6.0,10.7,27,0.00,OVC,FEW,0.02,WeatherDisplay:10.37,2013-05-11 22:29:00,
2013-05-11 17:34:00,56.3,21.8,30.01,NW,315,5.4,10.4,26,0.00,OVC,FEW,0.02,WeatherDisplay:10.37,2013-05-11 22:34:00,
2013-05-11 17:40:00,55.8,20.4,30.01,North,0,8.3,16.8,25,0.00,OVC,FEW,0.02,WeatherDisplay:10.37,2013-05-11 22:40:00,
2013-05-11 17:45:00,54.9,21.5,30.01,NW,315,9.2,17.5,27,0.00,OVC,FEW,0.02,WeatherDisplay:10.37,2013-05-11 22:45:00,
2013-05-11 17:51:00,54.7,22.2,30.01,West,270,8.3,15.0,28,0.00,OVC,FEW,0.02,WeatherDisplay:10.37,2013-05-11 22:51:00,
2013-05-11 17:57:00,55.0,22.5,30.01,North,0,3.8,12.7,28,0.00,OVC,FEW,0.02,WeatherDisplay:10.37,2013-05-11 22:57:00,
2013-05-11 18:02:00,55.0,22.5,30.01,West,270,3.8,8.1,28,0.00,OVC,FEW,0.02,WeatherDisplay:10.37,2013-05-11 23:02:00,
2013-05-11 18:08:00,54.3,21.0,30.01,NW,315,9.2,17.3,27,0.00,OVC,FEW,0.02,WeatherDisplay:10.37,2013-05-11 23:08:00,
2013-05-11 18:14:00,54.0,20.7,30.01,NW,315,9.2,16.1,27,0.00,OVC,FEW,0.02,WeatherDisplay:10.37,2013-05-11 23:14:00,
2013-05-11 18:19:00,54.3,22.7,30.02,West,270,2.2,15.0,29,0.00,OVC,FEW,0.02,WeatherDisplay:10.37,2013-05-11 23:19:00,
2013-05-11 18:25:00,54.7,20.4,30.02,West,270,6.0,12.7,26,0.00,OVC,FEW,0.02,WeatherDisplay:10.37,2013-05-11 23:25:00,
2013-05-11 18:30:00,54.3,20.1,30.01,North,0,5.4,12.7,26,0.00,OVC,FEW,0.02,WeatherDisplay:10.37,2013-05-11 23:30:00,
2013-05-11 18:36:00,54.5,19.3,30.01,West,270,6.9,12.7,25,0.00,OVC,FEW,0.02,WeatherDisplay:10.37,2013-05-11 23:36:00,
2013-05-11 18:42:00,54.3,16.2,30.01,West,270,6.9,20.7,22,0.00,OVC,FEW,0.02,WeatherDisplay:10.37,2013-05-11 23:42:00,
2013-05-11 18:47:00,54.3,16.2,30.01,SE,135,6.9,19.0,22,0.00,OVC,FEW,0.02,WeatherDisplay:10.37,2013-05-11 23:47:00,
2013-05-11 18:53:00,54.3,16.2,30.01,West,270,4.5,15.0,22,0.00,OVC,FEW,0.02,WeatherDisplay:10.37,2013-05-11 23:53:00,
2013-05-11 18:58:00,53.8,14.7,30.02,NW,315,6.9,14.5,21,0.00,OVC,FEW,0.02,WeatherDisplay:10.37,2013-05-11 23:58:00,
2013-05-11 19:04:00,53.6,14.5,30.02,NW,315,4.5,20.7,21,0.00,OVC,FEW,0.02,WeatherDisplay:10.37,2013-05-12 00:04:00,
2013-05-11 19:10:00,53.6,14.5,30.02,NW,315,3.1,6.9,21,0.00,OVC,FEW,0.02,WeatherDisplay:10.37,2013-05-12 00:10:00,
2013-05-11 19:15:00,53.2,14.2,30.02,NW,315,6.0,13.0,21,0.00,OVC,FEW,0.02,WeatherDisplay:10.37,2013-05-12 00:15:00,
2013-05-11 19:21:00,53.1,15.2,30.02,North,0,6.9,11.5,22,0.00,OVC,FEW,0.02,WeatherDisplay:10.37,2013-05-12 00:21:00,
2013-05-11 19:26:00,52.9,13.9,30.02,NW,315,5.4,11.5,21,0.00,OVC,FEW,0.02,WeatherDisplay:10.37,2013-05-12 00:26:00,
2013-05-11 19:32:00,52.7,13.8,30.02,NW,315,4.5,12.7,21,0.00,OVC,FEW,0.02,WeatherDisplay:10.37,2013-05-12 00:32:00,
2013-05-11 19:38:00,52.5,14.7,30.02,NW,315,6.9,15.0,22,0.00,OVC,FEW,0.02,WeatherDisplay:10.37,2013-05-12 00:38:00,
2013-05-11 19:43:00,52.5,14.7,30.02,North,0,6.0,12.7,22,0.00,OVC,FEW,0.02,WeatherDisplay:10.37,2013-05-12 00:43:00,
2013-05-11 19:49:00,52.3,15.6,30.03,NW,315,3.8,12.7,23,0.00,OVC,FEW,0.02,WeatherDisplay:10.37,2013-05-12 00:49:00,
2013-05-11 19:54:00,52.0,16.3,30.02,North,0,1.6,4.6,24,0.00,OVC,FEW,0.02,WeatherDisplay:10.37,2013-05-12 00:54:00,
2013-05-11 20:00:00,51.8,13.0,30.02,NW,315,5.4,12.7,21,0.00,OVC,FEW,0.02,WeatherDisplay:10.37,2013-05-12 01:00:00,
2013-05-11 20:06:00,51.4,13.8,30.03,NW,315,3.1,8.1,22,0.00,OVC,FEW,0.02,WeatherDisplay:10.37,2013-05-12 01:06:00,
2013-05-11 20:11:00,51.4,13.8,30.03,WNW,292,4.5,10.4,22,0.00,OVC,FEW,0.02,WeatherDisplay:10.37,2013-05-12 01:11:00,
2013-05-11 20:17:00,51.1,14.5,30.03,NW,315,5.4,10.7,23,0.00,OVC,FEW,0.02,WeatherDisplay:10.37,2013-05-12 01:17:00,
2013-05-11 20:22:00,50.9,14.4,30.03,NW,315,3.1,6.0,23,0.00,OVC,FEW,0.02,WeatherDisplay:10.37,2013-05-12 01:22:00,
2013-05-11 20:28:00,50.5,16.0,30.03,NE,45,4.5,8.3,25,0.00,OVC,FEW,0.02,WeatherDisplay:10.37,2013-05-12 01:28:00,
2013-05-11 20:34:00,50.4,15.8,30.03,NW,315,1.6,8.1,25,0.00,OVC,FEW,0.02,WeatherDisplay:10.37,2013-05-12 01:34:00,
2013-05-11 20:39:00,50.2,16.6,30.04,NW,315,2.2,6.9,26,0.00,OVC,FEW,0.02,WeatherDisplay:10.37,2013-05-12 01:39:00,
2013-05-11 20:45:00,49.8,18.0,30.04,North,0,2.2,8.1,28,0.00,OVC,FEW,0.02,WeatherDisplay:10.37,2013-05-12 01:45:00,
2013-05-11 20:50:00,49.6,17.8,30.04,North,0,3.1,6.9,28,0.00,OVC,FEW,0.02,WeatherDisplay:10.37,2013-05-12 01:50:00,
2013-05-11 20:56:00,49.3,17.5,30.04,NW,315,2.2,5.8,28,0.00,OVC,FEW,0.02,WeatherDisplay:10.37,2013-05-12 01:56:00,
2013-05-11 21:02:00,48.9,18.0,30.04,NW,315,2.2,4.5,29,0.00,OVC,FEW,0.02,WeatherDisplay:10.37,2013-05-12 02:02:00,
2013-05-11 21:07:00,48.9,17.2,30.04,NW,315,2.2,6.9,28,0.00,OVC,FEW,0.02,WeatherDisplay:10.37,2013-05-12 02:07:00,
2013-05-11 21:13:00,48.9,17.2,30.04,NW,315,3.8,10.4,28,0.00,OVC,FEW,0.02,WeatherDisplay:10.37,2013-05-12 02:13:00,
2013-05-11 21:18:00,48.7,17.0,30.05,West,270,1.6,5.8,28,0.00,OVC,FEW,0.02,WeatherDisplay:10.37,2013-05-12 02:18:00,
2013-05-11 21:24:00,48.6,17.7,30.05,NW,315,0.7,5.8,29,0.00,OVC,FEW,0.02,WeatherDisplay:10.37,2013-05-12 02:24:00,
2013-05-11 21:30:00,48.6,16.9,30.05,NW,315,2.2,8.1,28,0.00,OVC,FEW,0.02,WeatherDisplay:10.37,2013-05-12 02:30:00,
2013-05-11 21:35:00,48.4,17.5,30.05,NW,315,2.2,3.5,29,0.00,OVC,FEW,0.02,WeatherDisplay:10.37,2013-05-12 02:35:00,
2013-05-11 21:41:00,48.0,17.2,30.05,West,270,1.6,5.8,29,0.00,OVC,FEW,0.02,WeatherDisplay:10.37,2013-05-12 02:41:00,
2013-05-11 21:46:00,47.8,18.6,30.05,NW,315,0.7,2.3,31,0.00,OVC,FEW,0.02,WeatherDisplay:10.37,2013-05-12 02:46:00,
2013-05-11 21:52:00,47.7,18.5,30.05,NW,315,0.7,5.8,31,0.00,OVC,FEW,0.02,WeatherDisplay:10.37,2013-05-12 02:52:00,
2013-05-11 21:58:00,47.5,18.3,30.05,West,270,2.2,8.1,31,0.00,OVC,FEW,0.02,WeatherDisplay:10.37,2013-05-12 02:58:00,
2013-05-11 22:03:00,47.5,19.0,30.06,NW,315,2.2,6.9,32,0.00,OVC,FEW,0.02,WeatherDisplay:10.37,2013-05-12 03:03:00,
2013-05-11 22:09:00,47.3,18.9,30.05,NW,315,2.2,6.0,32,0.00,OVC,FEW,0.02,WeatherDisplay:10.37,2013-05-12 03:09:00,
2013-05-11 22:14:00,46.9,18.6,30.06,NW,315,1.6,3.5,32,0.00,OVC,FEW,0.02,WeatherDisplay:10.37,2013-05-12 03:14:00,
2013-05-11 22:20:00,47.1,18.7,30.06,NW,315,3.1,6.0,32,0.00,OVC,FEW,0.02,WeatherDisplay:10.37,2013-05-12 03:20:00,
2013-05-11 22:26:00,46.8,19.8,30.06,NW,315,1.6,5.8,34,0.00,OVC,FEW,0.02,WeatherDisplay:10.37,2013-05-12 03:26:00,
2013-05-11 22:31:00,46.6,20.4,30.06,West,270,1.6,4.6,35,0.00,OVC,FEW,0.02,WeatherDisplay:10.37,2013-05-12 03:31:00,
2013-05-11 22:37:00,46.4,20.9,30.06,North,0,1.6,3.5,36,0.00,OVC,FEW,0.02,WeatherDisplay:10.37,2013-05-12 03:37:00,
2013-05-11 22:42:00,46.2,20.7,30.06,West,270,0.7,3.5,36,0.00,OVC,FEW,0.02,WeatherDisplay:10.37,2013-05-12 03:42:00,
2013-05-11 22:48:00,45.9,21.0,30.06,NW,315,0.7,3.5,37,0.00,OVC,FEW,0.02,WeatherDisplay:10.37,2013-05-12 03:48:00,
2013-05-11 22:54:00,45.7,22.1,30.06,NW,315,0.7,3.5,39,0.00,OVC,FEW,0.02,WeatherDisplay:10.37,2013-05-12 03:54:00,
2013-05-11 22:59:00,45.5,21.3,30.06,NW,315,0.7,5.8,38,0.00,OVC,FEW,0.02,WeatherDisplay:10.37,2013-05-12 03:59:00,
2013-05-11 23:01:00,45.5,21.9,30.06,NW,315,0.7,3.5,39,0.00,OVC,FEW,0.02,WeatherDisplay:10.37,2013-05-12 04:01:00,
2013-05-11 23:02:00,45.5,21.9,30.06,North,0,1.6,3.5,39,0.00,OVC,FEW,0.02,WeatherDisplay:10.37,2013-05-12 04:02:00,
2013-05-11 23:04:00,45.3,21.8,30.06,North,0,2.2,4.6,39,0.00,OVC,FEW,0.02,WeatherDisplay:10.37,2013-05-12 04:04:00,
2013-05-11 23:05:00,45.3,21.8,30.06,North,0,2.2,4.6,39,0.00,OVC,FEW,0.02,WeatherDisplay:10.37,2013-05-12 04:05:00,
2013-05-11 23:10:00,45.1,22.2,30.06,NW,315,0.7,5.8,40,0.00,OVC,FEW,0.02,WeatherDisplay:10.37,2013-05-12 04:10:00,
2013-05-11 23:16:00,45.1,22.8,30.07,NW,315,1.6,3.5,41,0.00,OVC,FEW,0.02,WeatherDisplay:10.37,2013-05-12 04:16:00,
2013-05-11 23:22:00,45.0,22.1,30.07,North,0,2.2,4.6,40,0.00,OVC,FEW,0.02,WeatherDisplay:10.37,2013-05-12 04:22:00,
2013-05-11 23:27:00,45.0,22.6,30.06,West,270,0.0,4.6,41,0.00,OVC,FEW,0.02,WeatherDisplay:10.37,2013-05-12 04:27:00,
2013-05-11 23:33:00,44.6,22.9,30.06,NW,315,1.6,3.8,42,0.00,OVC,FEW,0.02,WeatherDisplay:10.37,2013-05-12 04:33:00,
2013-05-11 23:38:00,44.2,23.1,30.07,North,0,2.2,4.5,43,0.00,OVC,FEW,0.02,WeatherDisplay:10.37,2013-05-12 04:38:00,
2013-05-11 23:44:00,43.9,23.9,30.07,North,0,1.6,4.6,45,0.00,OVC,FEW,0.02,WeatherDisplay:10.37,2013-05-12 04:44:00,
2013-05-11 23:50:00,43.7,23.7,30.07,NW,315,2.2,4.6,45,0.00,OVC,FEW,0.02,WeatherDisplay:10.37,2013-05-12 04:50:00,
2013-05-11 23:55:00,43.5,24.1,30.07,NW,315,1.6,3.8,46,0.00,OVC,FEW,0.02,WeatherDisplay:10.37,2013-05-12 04:55:00,